Regional Weather Roundup
Issued by NWS

Home | Current Version | Previous Version | Text Only | Print | Product List | Glossary On
Versions: 1 2 3 4 5 6 7 8 9 10 11 12 13 14 15 16 17 18 19 20 21 22 23 24 25 26 27 28 29 30 31 32 33 34 35 36 37 38 39 40 41 42 43 44 45 46 47 48 49 50
000
ASUS44 KLIX 050110
RWRLA
LOUISIANA WEATHER ROUNDUP
NATIONAL WEATHER SERVICE NEW ORLEANS LA
700 PM CST WED MAR 04 2015

NOTE: "FAIR" INDICATES FEW OR NO CLOUDS BELOW 12,000 FEET WITH NO
      SIGNIFICANT WEATHER AND/OR OBSTRUCTIONS TO VISIBILITY.
      SKY/WX - SKY CONDITION AND SIGNIFICANT WEATHER.
      TMP - AIR TEMPERATURE.    DP   - DEWPOINT TEMPERATURE.
      RH  - RELATIVE HUMIDITY.  PRES - PRESSURE.
      HX  - HEAT INDEX.         WCI  - WIND CHILL INDEX.

*  THESE STATIONS ARE NOT NWS OR FAA STATIONS AND ARE NOT UNDER
   NWS QUALITY CONTROL.

LAZ040-048-061>063-065-066-069-050200-
SOUTHEAST LOUISIANA

CITY           SKY/WX    TMP DP  RH WIND       PRES   REMARKS
N.O. AUDUBON     N/A     73  73  99 MISG        N/A
N.O. INTL ARPT PTCLDY    75  68  78 S9        29.90R
N.O. LAKEFRONT PTCLDY    77  67  71 S14       29.91R
SLIDELL        PTCLDY    72  69  90 S5        29.90R
BATON ROUGE    CLOUDY    76  67  73 S12       29.87R
BOOTHVILLE     MOCLDY    72  70  93 S8        29.94R
BELLE CHASSE   MOCLDY    74  69  85 S7        29.91R
BOGALUSA*        N/A     77  65  66 S9        29.90S
GALLIANO*      MOCLDY    76  71  85 S13G18    29.92R
NEW ROADS*     CLOUDY    75  67  77 S6        29.87R
GONZALES*      CLOUDY    75  70  83 S7        29.88S
HAMMOND*       MOCLDY    75  64  69 S7        29.90S
HOUMA*         MOCLDY    73  70  88 S7        29.90S
PORT FOURCHON* MOCLDY    73  70  88 S6        29.95S FOG

$$

LAZ041-044-053-054-050200-
SOUTHWEST LOUISIANA

CITY           SKY/WX    TMP DP  RH WIND       PRES   REMARKS
LAKE CHARLES   CLOUDY    73  69  87 S9        29.84R
LAFAYETTE      CLOUDY    74  70  87 S13       29.87R
PATTERSON      PTCLDY    73  70  88 S12       29.89S
SALT POINT       N/A     68  67  96 VRB6      29.87S
NEW IBERIA     PTCLDY    72  69  90 S12       29.87R
CHENAULT AIRPK CLOUDY    72  70  94 S8        29.85R

$$

LAZ027-028-050200-
CENTRAL LOUISIANA

CITY           SKY/WX    TMP DP  RH WIND       PRES   REMARKS
FORT POLK      CLOUDY    73  66  78 S7        29.84R
ALEXANDRIA INT MOCLDY    72  67  84 S6        29.83R
ALEXANDRIA     PTCLDY    74  67  78 S6        29.85R

$$

LAZ001-002-050200-
NORTHWEST LOUISIANA

CITY           SKY/WX    TMP DP  RH WIND       PRES   REMARKS
SHREVEPORT     LGT RAIN  46  43  89 N24G35    29.97R
BARKSDALE AFB  LGT RAIN  44  41  89 NE14G21   29.98R
DTN SHREVEPORT LGT RAIN  44  39  82 NE13G29   29.98R

$$

LAZ014-016-050200-
NORTHEAST LOUISIANA

CITY           SKY/WX    TMP DP  RH WIND       PRES   REMARKS
MONROE         CLOUDY    43  40  89 NE17G29   29.97R
TALLULAH       RAIN      45  41  86 N16G28    29.94R

$$




USA.gov is the U.S. government's official web portal to all federal, state and local government web resources and services.